Year,Month,Day,Hour,Minute,Value (Times are PST for temperature in C)
2015,08,06,00,00,16.60
2015,08,06,00,01,16.60
2015,08,06,00,02,16.50
2015,08,06,00,03,16.50
2015,08,06,00,04,16.40
2015,08,06,00,05,16.40
2015,08,06,00,06,16.30
2015,08,06,00,07,16.30
2015,08,06,00,08,16.30
2015,08,06,00,09,16.20
2015,08,06,00,10,16.20
2015,08,06,00,11,16.20
2015,08,06,00,12,16.20
2015,08,06,00,13,16.10
2015,08,06,00,14,16.10
2015,08,06,00,15,16.10
2015,08,06,00,16,16.10
2015,08,06,00,17,16.00
2015,08,06,00,18,16.00
2015,08,06,00,19,16.00
2015,08,06,00,20,16.00
2015,08,06,00,21,15.90
2015,08,06,00,22,15.90
2015,08,06,00,23,15.90
2015,08,06,00,24,15.90
2015,08,06,00,25,15.90
2015,08,06,00,26,15.90
2015,08,06,00,27,15.90
2015,08,06,00,28,15.90
2015,08,06,00,29,15.90
2015,08,06,00,30,15.90
2015,08,06,00,31,15.90
2015,08,06,00,32,15.80
2015,08,06,00,33,15.80
2015,08,06,00,34,15.80
2015,08,06,00,35,15.80
2015,08,06,00,36,15.80
2015,08,06,00,37,15.80
2015,08,06,00,38,15.80
2015,08,06,00,39,15.80
2015,08,06,00,40,15.80
2015,08,06,00,41,15.70
2015,08,06,00,42,15.70
2015,08,06,00,43,15.70
2015,08,06,00,44,15.70
2015,08,06,00,45,15.70
2015,08,06,00,46,15.70
2015,08,06,00,47,15.70
2015,08,06,00,48,15.70
2015,08,06,00,49,15.70
2015,08,06,00,50,15.70
2015,08,06,00,51,15.70
2015,08,06,00,52,15.70
2015,08,06,00,53,15.60
2015,08,06,00,54,15.60
2015,08,06,00,55,15.60
2015,08,06,00,56,15.60
2015,08,06,00,57,15.60
2015,08,06,00,58,15.60
2015,08,06,00,59,15.60
2015,08,06,01,00,15.60
2015,08,06,01,01,15.60
2015,08,06,01,02,15.60
2015,08,06,01,03,15.50
2015,08,06,01,04,15.50
2015,08,06,01,05,15.50
2015,08,06,01,06,15.50
2015,08,06,01,07,15.50
2015,08,06,01,08,15.50
2015,08,06,01,09,15.50
2015,08,06,01,10,15.50
2015,08,06,01,11,15.50
2015,08,06,01,12,15.50
2015,08,06,01,13,15.50
2015,08,06,01,14,15.50
2015,08,06,01,15,15.50
2015,08,06,01,16,15.50
2015,08,06,01,17,15.50
2015,08,06,01,18,15.50
2015,08,06,01,19,15.50
2015,08,06,01,20,15.50
2015,08,06,01,21,15.50
2015,08,06,01,22,15.50
2015,08,06,01,23,15.50
2015,08,06,01,24,15.50
2015,08,06,01,25,15.50
2015,08,06,01,26,15.50
2015,08,06,01,27,15.50
2015,08,06,01,28,15.50
2015,08,06,01,29,15.50
2015,08,06,01,30,15.40
2015,08,06,01,31,15.40
2015,08,06,01,32,15.40
2015,08,06,01,33,15.40
2015,08,06,01,34,15.40
2015,08,06,01,35,15.40
2015,08,06,01,36,15.40
2015,08,06,01,37,15.40
2015,08,06,01,38,15.40
2015,08,06,01,39,15.40
2015,08,06,01,40,15.40
2015,08,06,01,41,15.40
2015,08,06,01,42,15.30
2015,08,06,01,43,15.40
2015,08,06,01,44,15.40
2015,08,06,01,45,15.40
2015,08,06,01,46,15.40
2015,08,06,01,47,15.40
2015,08,06,01,48,15.40
2015,08,06,01,49,15.40
2015,08,06,01,50,15.40
2015,08,06,01,51,15.40
2015,08,06,01,52,15.40
2015,08,06,01,53,15.40
2015,08,06,01,54,15.40
2015,08,06,01,55,15.40
2015,08,06,01,56,15.40
2015,08,06,01,57,15.40
2015,08,06,01,58,15.40
2015,08,06,01,59,15.40
2015,08,06,02,00,15.50
2015,08,06,02,01,15.50
2015,08,06,02,02,15.50
2015,08,06,02,03,15.60
2015,08,06,02,04,15.60
2015,08,06,02,05,15.60
2015,08,06,02,06,15.60
2015,08,06,02,07,15.60
2015,08,06,02,08,15.60
2015,08,06,02,09,15.70
2015,08,06,02,10,15.70
2015,08,06,02,11,15.70
2015,08,06,02,12,15.70
2015,08,06,02,13,15.70
2015,08,06,02,14,15.70
2015,08,06,02,15,15.70
2015,08,06,02,16,15.70
2015,08,06,02,17,15.70
2015,08,06,02,18,15.80
2015,08,06,02,19,15.80
2015,08,06,02,20,15.80
2015,08,06,02,21,15.80
2015,08,06,02,22,15.80
2015,08,06,02,23,15.90
2015,08,06,02,24,15.90
2015,08,06,02,25,15.90
2015,08,06,02,26,15.90
2015,08,06,02,27,15.90
2015,08,06,02,28,16.00
2015,08,06,02,29,16.00
2015,08,06,02,30,16.00
2015,08,06,02,31,16.00
2015,08,06,02,32,16.00
2015,08,06,02,33,16.10
2015,08,06,02,34,16.10
2015,08,06,02,35,16.10
2015,08,06,02,36,16.10
2015,08,06,02,37,16.10
2015,08,06,02,38,16.10
2015,08,06,02,39,16.10
2015,08,06,02,40,16.10
2015,08,06,02,41,16.10
2015,08,06,02,42,16.10
2015,08,06,02,43,16.10
2015,08,06,02,44,16.10
2015,08,06,02,45,16.10
2015,08,06,02,46,16.10
2015,08,06,02,47,16.10
2015,08,06,02,48,16.10
2015,08,06,02,49,16.10
2015,08,06,02,50,16.10
2015,08,06,02,51,16.10
2015,08,06,02,52,16.10
2015,08,06,02,53,16.10
2015,08,06,02,54,16.10
2015,08,06,02,55,16.10
2015,08,06,02,56,16.10
2015,08,06,02,57,16.10
2015,08,06,02,58,16.00
2015,08,06,02,59,16.00
2015,08,06,03,00,16.00
2015,08,06,03,01,15.90
2015,08,06,03,02,15.90
2015,08,06,03,03,15.90
2015,08,06,03,04,15.90
2015,08,06,03,05,15.90
2015,08,06,03,06,15.90
2015,08,06,03,07,15.90
2015,08,06,03,08,15.90
2015,08,06,03,09,15.90
2015,08,06,03,10,15.90
2015,08,06,03,11,15.90
2015,08,06,03,12,15.90
2015,08,06,03,13,15.90
2015,08,06,03,14,15.90
2015,08,06,03,15,15.90
2015,08,06,03,16,15.90
2015,08,06,03,17,15.90
2015,08,06,03,18,15.90
2015,08,06,03,19,15.90
2015,08,06,03,20,15.90
2015,08,06,03,21,15.90
2015,08,06,03,22,15.90
2015,08,06,03,23,15.90
2015,08,06,03,24,15.90
2015,08,06,03,25,15.90
2015,08,06,03,26,15.90
2015,08,06,03,27,15.90
2015,08,06,03,28,15.90
2015,08,06,03,29,15.90
2015,08,06,03,30,16.00
2015,08,06,03,31,16.00
2015,08,06,03,32,16.00
2015,08,06,03,33,16.00
2015,08,06,03,34,16.00
2015,08,06,03,35,16.00
2015,08,06,03,36,16.00
2015,08,06,03,37,16.00
2015,08,06,03,38,16.00
2015,08,06,03,39,16.00
2015,08,06,03,40,16.00
2015,08,06,03,41,16.00
2015,08,06,03,42,16.00
2015,08,06,03,43,16.00
2015,08,06,03,44,16.00
2015,08,06,03,45,16.00
2015,08,06,03,46,16.00
2015,08,06,03,47,16.00
2015,08,06,03,48,16.00
2015,08,06,03,49,16.00
2015,08,06,03,50,16.00
2015,08,06,03,51,16.00
2015,08,06,03,52,16.00
2015,08,06,03,53,16.00
2015,08,06,03,54,16.00
2015,08,06,03,55,16.00
2015,08,06,03,56,16.10
2015,08,06,03,57,16.10
2015,08,06,03,58,16.10
2015,08,06,03,59,16.10
2015,08,06,04,00,16.10
2015,08,06,04,01,16.10
2015,08,06,04,02,16.10
2015,08,06,04,03,16.10
2015,08,06,04,04,16.10
2015,08,06,04,05,16.10
2015,08,06,04,06,16.10
2015,08,06,04,07,16.10
2015,08,06,04,08,16.10
2015,08,06,04,09,16.10
2015,08,06,04,10,16.10
2015,08,06,04,11,16.10
2015,08,06,04,12,16.10
2015,08,06,04,13,16.10
2015,08,06,04,14,16.10
2015,08,06,04,15,16.10
2015,08,06,04,16,16.10
2015,08,06,04,17,16.10
2015,08,06,04,18,16.10
2015,08,06,04,19,16.10
2015,08,06,04,20,16.10
2015,08,06,04,21,16.10
2015,08,06,04,22,16.10
2015,08,06,04,23,16.10
2015,08,06,04,24,16.00
2015,08,06,04,25,16.00
2015,08,06,04,26,16.00
2015,08,06,04,27,16.00
2015,08,06,04,28,16.00
2015,08,06,04,29,16.00
2015,08,06,04,30,16.00
2015,08,06,04,31,16.00
2015,08,06,04,32,16.00
2015,08,06,04,33,16.00
2015,08,06,04,34,16.00
2015,08,06,04,35,16.00
2015,08,06,04,36,16.00
2015,08,06,04,37,16.00
2015,08,06,04,38,16.00
2015,08,06,04,39,16.00
2015,08,06,04,40,16.00
2015,08,06,04,41,16.00
2015,08,06,04,42,16.00
2015,08,06,04,43,16.00
2015,08,06,04,44,16.00
2015,08,06,04,45,16.00
2015,08,06,04,46,16.10
2015,08,06,04,47,16.10
2015,08,06,04,48,16.10
2015,08,06,04,49,16.10
2015,08,06,04,50,16.10
2015,08,06,04,51,16.10
2015,08,06,04,52,16.10
2015,08,06,04,53,16.10
2015,08,06,04,54,16.10
2015,08,06,04,55,16.10
2015,08,06,04,56,16.10
2015,08,06,04,57,16.10
2015,08,06,04,58,16.10
2015,08,06,04,59,16.10
2015,08,06,05,00,16.20
2015,08,06,05,01,16.20
2015,08,06,05,02,16.20
2015,08,06,05,03,16.20
2015,08,06,05,04,16.20
2015,08,06,05,05,16.20
2015,08,06,05,06,16.20
2015,08,06,05,07,16.20
2015,08,06,05,08,16.20
2015,08,06,05,09,16.20
2015,08,06,05,10,16.20
2015,08,06,05,11,16.30
2015,08,06,05,12,16.30
2015,08,06,05,13,16.30
2015,08,06,05,14,16.30
2015,08,06,05,15,16.30
2015,08,06,05,16,16.30
2015,08,06,05,17,16.30
2015,08,06,05,18,16.20
2015,08,06,05,19,16.20
2015,08,06,05,20,16.20
2015,08,06,05,21,16.20
2015,08,06,05,22,16.20
2015,08,06,05,23,16.20
2015,08,06,05,24,16.20
2015,08,06,05,25,16.20
2015,08,06,05,26,16.20
2015,08,06,05,27,16.20
2015,08,06,05,28,16.20
2015,08,06,05,29,16.30
2015,08,06,05,30,16.30
2015,08,06,05,31,16.30
2015,08,06,05,32,16.30
2015,08,06,05,33,16.30
2015,08,06,05,34,16.30
2015,08,06,05,35,16.30
2015,08,06,05,36,16.30
2015,08,06,05,37,16.40
2015,08,06,05,38,16.40
2015,08,06,05,39,16.40
2015,08,06,05,40,16.40
2015,08,06,05,41,16.40
2015,08,06,05,42,16.40
2015,08,06,05,43,16.40
2015,08,06,05,44,16.40
2015,08,06,05,45,16.40
2015,08,06,05,46,16.40
2015,08,06,05,47,16.40
2015,08,06,05,48,16.40
2015,08,06,05,49,16.40
2015,08,06,05,50,16.40
2015,08,06,05,51,16.40
2015,08,06,05,52,16.40
2015,08,06,05,53,16.40
2015,08,06,05,54,16.40
2015,08,06,05,55,16.40
2015,08,06,05,56,16.40
2015,08,06,05,57,16.40
2015,08,06,05,58,16.40
2015,08,06,05,59,16.40
2015,08,06,06,00,16.40
2015,08,06,06,01,16.40
2015,08,06,06,02,16.40
2015,08,06,06,03,16.40
2015,08,06,06,04,16.40
2015,08,06,06,05,16.40
2015,08,06,06,06,16.40
2015,08,06,06,07,16.40
2015,08,06,06,08,16.40
2015,08,06,06,09,16.40
2015,08,06,06,10,16.40
2015,08,06,06,11,16.40
2015,08,06,06,12,16.40
2015,08,06,06,13,16.50
2015,08,06,06,14,16.50
2015,08,06,06,15,16.50
2015,08,06,06,16,16.60
2015,08,06,06,17,16.60
2015,08,06,06,18,16.60
2015,08,06,06,19,16.60
2015,08,06,06,20,16.60
2015,08,06,06,21,16.60
2015,08,06,06,22,16.70
2015,08,06,06,23,16.70
2015,08,06,06,24,16.70
2015,08,06,06,25,16.70
2015,08,06,06,26,16.70
2015,08,06,06,27,16.70
2015,08,06,06,28,16.70
2015,08,06,06,29,16.80
2015,08,06,06,30,16.80
2015,08,06,06,31,16.80
2015,08,06,06,32,16.80
2015,08,06,06,33,16.80
2015,08,06,06,34,16.80
2015,08,06,06,35,16.80
2015,08,06,06,36,16.80
2015,08,06,06,37,16.80
2015,08,06,06,38,16.80
2015,08,06,06,39,16.80
2015,08,06,06,40,16.80
2015,08,06,06,41,16.80
2015,08,06,06,42,16.80
2015,08,06,06,43,16.80
2015,08,06,06,44,16.80
2015,08,06,06,45,16.80
2015,08,06,06,46,16.80
2015,08,06,06,47,16.80
2015,08,06,06,48,16.80
2015,08,06,06,49,16.80
2015,08,06,06,50,16.80
2015,08,06,06,51,16.80
2015,08,06,06,52,16.80
2015,08,06,06,53,16.80
2015,08,06,06,54,16.80
2015,08,06,06,55,16.90
2015,08,06,06,56,16.90
2015,08,06,06,57,16.90
2015,08,06,06,58,16.90
2015,08,06,06,59,16.90
2015,08,06,07,00,16.90
2015,08,06,07,01,16.90
2015,08,06,07,02,16.90
2015,08,06,07,03,16.90
2015,08,06,07,04,16.90
2015,08,06,07,05,16.90
2015,08,06,07,06,16.90
2015,08,06,07,07,17.00
2015,08,06,07,08,17.00
2015,08,06,07,09,17.00
2015,08,06,07,10,17.00
2015,08,06,07,11,17.00
2015,08,06,07,12,17.00
2015,08,06,07,13,17.00
2015,08,06,07,14,17.10
2015,08,06,07,15,17.10
2015,08,06,07,16,17.10
2015,08,06,07,17,17.10
2015,08,06,07,18,17.10
2015,08,06,07,19,17.10
2015,08,06,07,20,17.10
2015,08,06,07,21,17.20
2015,08,06,07,22,17.20
2015,08,06,07,23,17.20
2015,08,06,07,24,17.20
2015,08,06,07,25,17.20
2015,08,06,07,26,17.20
2015,08,06,07,27,17.20
2015,08,06,07,28,17.30
2015,08,06,07,29,17.30
2015,08,06,07,30,17.30
2015,08,06,07,31,17.30
2015,08,06,07,32,17.30
2015,08,06,07,33,17.30
2015,08,06,07,34,17.30
2015,08,06,07,35,17.30
2015,08,06,07,36,17.40
2015,08,06,07,37,17.40
2015,08,06,07,38,17.40
2015,08,06,07,39,17.40
2015,08,06,07,40,17.40
2015,08,06,07,41,17.40
2015,08,06,07,42,17.40
2015,08,06,07,43,17.40
2015,08,06,07,44,17.40
2015,08,06,07,45,17.50
2015,08,06,07,46,17.50
2015,08,06,07,47,17.50
2015,08,06,07,48,17.50
2015,08,06,07,49,17.50
2015,08,06,07,50,17.50
2015,08,06,07,51,17.60
2015,08,06,07,52,17.60
2015,08,06,07,53,17.60
2015,08,06,07,54,17.60
2015,08,06,07,55,17.60
2015,08,06,07,56,17.60
2015,08,06,07,57,17.60
2015,08,06,07,58,17.70
2015,08,06,07,59,17.70
2015,08,06,08,00,17.70
2015,08,06,08,01,17.80
2015,08,06,08,02,17.80
2015,08,06,08,03,17.80
2015,08,06,08,04,17.90
2015,08,06,08,05,17.90
2015,08,06,08,06,18.00
2015,08,06,08,07,18.10
2015,08,06,08,08,18.20
2015,08,06,08,09,18.20
2015,08,06,08,10,18.20
2015,08,06,08,11,18.20
2015,08,06,08,12,18.30
2015,08,06,08,13,18.30
2015,08,06,08,14,18.30
2015,08,06,08,15,18.30
2015,08,06,08,16,18.40
2015,08,06,08,17,18.40
2015,08,06,08,18,18.50
2015,08,06,08,19,18.50
2015,08,06,08,20,18.50
2015,08,06,08,21,18.50
2015,08,06,08,22,18.50
2015,08,06,08,23,18.50
2015,08,06,08,24,18.40
2015,08,06,08,25,18.40
2015,08,06,08,26,18.30
2015,08,06,08,27,18.30
2015,08,06,08,28,18.30
2015,08,06,08,29,18.30
2015,08,06,08,30,18.30
2015,08,06,08,31,18.30
2015,08,06,08,32,18.30
2015,08,06,08,33,18.30
2015,08,06,08,34,18.40
2015,08,06,08,35,18.40
2015,08,06,08,36,18.40
2015,08,06,08,37,18.40
2015,08,06,08,38,18.40
2015,08,06,08,39,18.40
2015,08,06,08,40,18.40
2015,08,06,08,41,18.40
2015,08,06,08,42,18.30
2015,08,06,08,43,18.30
2015,08,06,08,44,18.30
2015,08,06,08,45,18.30
2015,08,06,08,46,18.30
2015,08,06,08,47,18.30
2015,08,06,08,48,18.30
2015,08,06,08,49,18.40
2015,08,06,08,50,18.30
2015,08,06,08,51,18.30
2015,08,06,08,52,18.20
2015,08,06,08,53,18.20
2015,08,06,08,54,18.20
2015,08,06,08,55,18.20
2015,08,06,08,56,18.20
2015,08,06,08,57,18.20
2015,08,06,08,58,18.20
2015,08,06,08,59,18.20
2015,08,06,09,00,18.30
2015,08,06,09,01,18.30
2015,08,06,09,02,18.30
2015,08,06,09,03,18.30
2015,08,06,09,04,18.30
2015,08,06,09,05,18.40
2015,08,06,09,06,18.40
2015,08,06,09,07,18.40
2015,08,06,09,08,18.40
2015,08,06,09,09,18.50
2015,08,06,09,10,18.50
2015,08,06,09,11,18.50
2015,08,06,09,12,18.60
2015,08,06,09,13,18.60
2015,08,06,09,14,18.60
2015,08,06,09,15,18.60
2015,08,06,09,16,18.60
2015,08,06,09,17,18.50
2015,08,06,09,18,18.50
2015,08,06,09,19,18.50
2015,08,06,09,20,18.50
2015,08,06,09,21,18.60
2015,08,06,09,22,18.70
2015,08,06,09,23,18.70
2015,08,06,09,24,18.80
2015,08,06,09,25,18.80
2015,08,06,09,26,18.80
2015,08,06,09,27,18.80
2015,08,06,09,28,18.80
2015,08,06,09,29,18.90
2015,08,06,09,30,19.00
2015,08,06,09,31,19.00
2015,08,06,09,32,19.10
2015,08,06,09,33,19.20
2015,08,06,09,34,19.20
2015,08,06,09,35,19.30
2015,08,06,09,36,19.30
2015,08,06,09,37,19.30
2015,08,06,09,38,19.30
2015,08,06,09,39,19.30
2015,08,06,09,40,19.30
2015,08,06,09,41,19.20
2015,08,06,09,42,19.20
2015,08,06,09,43,19.10
2015,08,06,09,44,19.10
2015,08,06,09,45,19.00
2015,08,06,09,46,19.00
2015,08,06,09,47,18.90
2015,08,06,09,48,18.90
2015,08,06,09,49,18.90
2015,08,06,09,50,18.90
2015,08,06,09,51,18.90
2015,08,06,09,52,19.00
2015,08,06,09,53,19.00
2015,08,06,09,54,19.00
2015,08,06,09,55,18.90
2015,08,06,09,56,18.90
2015,08,06,09,57,18.80
2015,08,06,09,58,18.80
2015,08,06,09,59,18.80
2015,08,06,10,00,18.70
2015,08,06,10,01,18.60
2015,08,06,10,02,18.60
2015,08,06,10,03,18.60
2015,08,06,10,04,18.60
2015,08,06,10,05,18.60
2015,08,06,10,06,18.60
2015,08,06,10,07,18.60
2015,08,06,10,08,18.50
2015,08,06,10,09,18.50
2015,08,06,10,10,18.50
2015,08,06,10,11,18.50
2015,08,06,10,12,18.60
2015,08,06,10,13,18.60
2015,08,06,10,14,18.60
2015,08,06,10,15,18.60
2015,08,06,10,16,18.60
2015,08,06,10,17,18.60
2015,08,06,10,18,18.60
2015,08,06,10,19,18.60
2015,08,06,10,20,18.50
2015,08,06,10,21,18.50
2015,08,06,10,22,18.50
2015,08,06,10,23,18.50
2015,08,06,10,24,18.50
2015,08,06,10,25,18.60
2015,08,06,10,26,18.60
2015,08,06,10,27,18.70
2015,08,06,10,28,18.80
2015,08,06,10,29,18.80
2015,08,06,10,30,18.90
2015,08,06,10,31,18.90
2015,08,06,10,32,18.90
2015,08,06,10,33,18.90
2015,08,06,10,34,18.90
2015,08,06,10,35,18.90
2015,08,06,10,36,18.80
2015,08,06,10,37,18.80
2015,08,06,10,38,18.80
2015,08,06,10,39,18.70
2015,08,06,10,40,18.70
2015,08,06,10,41,18.70
2015,08,06,10,42,18.70
2015,08,06,10,43,18.70
2015,08,06,10,44,18.70
2015,08,06,10,45,18.70
2015,08,06,10,46,18.70
2015,08,06,10,47,18.70
2015,08,06,10,48,18.70
2015,08,06,10,49,18.70
2015,08,06,10,50,18.70
2015,08,06,10,51,18.70
2015,08,06,10,52,18.80
2015,08,06,10,53,18.80
2015,08,06,10,54,18.80
2015,08,06,10,55,18.80
2015,08,06,10,56,18.80
2015,08,06,10,57,18.80
2015,08,06,10,58,18.70
2015,08,06,10,59,18.70
2015,08,06,11,00,18.70
2015,08,06,11,01,18.70
2015,08,06,11,02,18.70
2015,08,06,11,03,18.70
2015,08,06,11,04,18.70
2015,08,06,11,05,18.70
2015,08,06,11,06,18.70
2015,08,06,11,07,18.70
2015,08,06,11,08,18.80
2015,08,06,11,09,18.80
2015,08,06,11,10,18.80
2015,08,06,11,11,18.70
2015,08,06,11,12,18.70
2015,08,06,11,13,18.70
2015,08,06,11,14,18.60
2015,08,06,11,15,18.60
2015,08,06,11,16,18.60
2015,08,06,11,17,18.50
2015,08,06,11,18,18.50
2015,08,06,11,19,18.40
2015,08,06,11,20,18.40
2015,08,06,11,21,18.40
2015,08,06,11,22,18.40
2015,08,06,11,23,18.50
2015,08,06,11,24,18.50
2015,08,06,11,25,18.50
2015,08,06,11,26,18.60
2015,08,06,11,27,18.60
2015,08,06,11,28,18.60
2015,08,06,11,29,18.60
2015,08,06,11,30,18.60
2015,08,06,11,31,18.60
2015,08,06,11,32,18.70
2015,08,06,11,33,18.60
2015,08,06,11,34,18.70
2015,08,06,11,35,18.70
2015,08,06,11,36,18.70
2015,08,06,11,37,18.80
2015,08,06,11,38,18.80
2015,08,06,11,39,18.80
2015,08,06,11,40,18.80
2015,08,06,11,41,18.90
2015,08,06,11,42,18.90
2015,08,06,11,43,18.90
2015,08,06,11,44,18.90
2015,08,06,11,45,18.90
2015,08,06,11,46,18.90
2015,08,06,11,47,19.00
2015,08,06,11,48,19.00
2015,08,06,11,49,19.00
2015,08,06,11,50,19.10
2015,08,06,11,51,19.10
2015,08,06,11,52,19.10
2015,08,06,11,53,19.10
2015,08,06,11,54,19.10
2015,08,06,11,55,19.10
2015,08,06,11,56,19.10
2015,08,06,11,57,19.10
2015,08,06,11,58,19.10
2015,08,06,11,59,19.10
2015,08,06,12,00,19.10
2015,08,06,12,01,19.20
2015,08,06,12,02,19.20
2015,08,06,12,03,19.20
2015,08,06,12,04,19.20
2015,08,06,12,05,19.20
2015,08,06,12,06,19.20
2015,08,06,12,07,19.30
2015,08,06,12,08,19.30
2015,08,06,12,09,19.30
2015,08,06,12,10,19.30
2015,08,06,12,11,19.20
2015,08,06,12,12,19.20
2015,08,06,12,13,19.20
2015,08,06,12,14,19.20
2015,08,06,12,15,19.20
2015,08,06,12,16,19.10
2015,08,06,12,17,19.10
2015,08,06,12,18,19.10
2015,08,06,12,19,19.10
2015,08,06,12,20,19.10
2015,08,06,12,21,19.10
2015,08,06,12,22,19.10
2015,08,06,12,23,19.20
2015,08,06,12,24,19.20
2015,08,06,12,25,19.20
2015,08,06,12,26,19.30
2015,08,06,12,27,19.30
2015,08,06,12,28,19.30
2015,08,06,12,29,19.30
2015,08,06,12,30,19.30
2015,08,06,12,31,19.30
2015,08,06,12,32,19.30
2015,08,06,12,33,19.30
2015,08,06,12,34,19.30
2015,08,06,12,35,19.30
2015,08,06,12,36,19.30
2015,08,06,12,37,19.30
2015,08,06,12,38,19.40
2015,08,06,12,39,19.40
2015,08,06,12,40,19.40
2015,08,06,12,41,19.40
2015,08,06,12,42,19.40
2015,08,06,12,43,19.40
2015,08,06,12,44,19.40
2015,08,06,12,45,19.40
2015,08,06,12,46,19.40
2015,08,06,12,47,19.40
2015,08,06,12,48,19.40
2015,08,06,12,49,19.40
2015,08,06,12,50,19.40
2015,08,06,12,51,19.40
2015,08,06,12,52,19.40
2015,08,06,12,53,19.40
2015,08,06,12,54,19.50
2015,08,06,12,55,19.50
2015,08,06,12,56,19.40
2015,08,06,12,57,19.50
2015,08,06,12,58,19.50
2015,08,06,12,59,19.50
2015,08,06,13,00,19.60
2015,08,06,13,01,19.60
2015,08,06,13,02,19.60
2015,08,06,13,03,19.60
2015,08,06,13,04,19.60
2015,08,06,13,05,19.60
2015,08,06,13,06,19.60
2015,08,06,13,07,19.70
2015,08,06,13,08,19.60
2015,08,06,13,09,19.60
2015,08,06,13,10,19.60
2015,08,06,13,11,19.60
2015,08,06,13,12,19.50
2015,08,06,13,13,19.40
2015,08,06,13,14,19.30
2015,08,06,13,15,19.30
2015,08,06,13,16,19.20
2015,08,06,13,17,19.10
2015,08,06,13,18,19.10
2015,08,06,13,19,19.10
2015,08,06,13,20,19.10
2015,08,06,13,21,19.10
2015,08,06,13,22,19.00
2015,08,06,13,23,19.00
2015,08,06,13,24,19.00
2015,08,06,13,25,18.90
2015,08,06,13,26,19.00
2015,08,06,13,27,19.00
2015,08,06,13,28,19.10
2015,08,06,13,29,19.10
2015,08,06,13,30,19.10
2015,08,06,13,31,19.20
2015,08,06,13,32,19.10
2015,08,06,13,33,19.10
2015,08,06,13,34,19.10
2015,08,06,13,35,19.10
2015,08,06,13,36,19.10
2015,08,06,13,37,19.10
2015,08,06,13,38,19.10
2015,08,06,13,39,19.10
2015,08,06,13,40,19.10
2015,08,06,13,41,19.20
2015,08,06,13,42,19.20
2015,08,06,13,43,19.20
2015,08,06,13,44,19.20
2015,08,06,13,45,19.20
2015,08,06,13,46,19.20
2015,08,06,13,47,19.10
2015,08,06,13,48,19.10
2015,08,06,13,49,19.10
2015,08,06,13,50,19.10
2015,08,06,13,51,19.10
2015,08,06,13,52,19.00
2015,08,06,13,53,19.00
2015,08,06,13,54,19.00
2015,08,06,13,55,18.90
2015,08,06,13,56,18.90
2015,08,06,13,57,18.80
2015,08,06,13,58,18.90
2015,08,06,13,59,18.90
2015,08,06,14,00,18.90
2015,08,06,14,01,18.80
2015,08,06,14,02,18.70
2015,08,06,14,03,18.70
2015,08,06,14,04,18.70
2015,08,06,14,05,18.70
2015,08,06,14,06,18.70
2015,08,06,14,07,18.80
2015,08,06,14,08,18.80
2015,08,06,14,09,18.80
2015,08,06,14,10,18.80
2015,08,06,14,11,18.80
2015,08,06,14,12,18.80
2015,08,06,14,13,18.80
2015,08,06,14,14,18.80
2015,08,06,14,15,18.80
2015,08,06,14,16,18.80
2015,08,06,14,17,18.80
2015,08,06,14,18,18.80
2015,08,06,14,19,18.90
2015,08,06,14,20,18.90
2015,08,06,14,21,18.90
2015,08,06,14,22,19.00
2015,08,06,14,23,19.00
2015,08,06,14,24,19.10
2015,08,06,14,25,19.10
2015,08,06,14,26,19.10
2015,08,06,14,27,19.10
2015,08,06,14,28,19.10
2015,08,06,14,29,19.10
2015,08,06,14,30,19.20
2015,08,06,14,31,19.20
2015,08,06,14,32,19.20
2015,08,06,14,33,19.20
2015,08,06,14,34,19.10
2015,08,06,14,35,19.10
2015,08,06,14,36,19.10
2015,08,06,14,37,19.10
2015,08,06,14,38,19.10
2015,08,06,14,39,19.20
2015,08,06,14,40,19.20
2015,08,06,14,41,19.20
2015,08,06,14,42,19.20
2015,08,06,14,43,19.10
2015,08,06,14,44,19.10
2015,08,06,14,45,19.10
2015,08,06,14,46,19.10
2015,08,06,14,47,19.00
2015,08,06,14,48,19.00
2015,08,06,14,49,19.10
2015,08,06,14,50,19.10
2015,08,06,14,51,19.10
2015,08,06,14,52,19.10
2015,08,06,14,53,19.00
2015,08,06,14,54,19.00
2015,08,06,14,55,19.00
2015,08,06,14,56,18.90
2015,08,06,14,57,19.00
2015,08,06,14,58,19.00
2015,08,06,14,59,19.00
2015,08,06,15,00,19.00
2015,08,06,15,01,19.10
2015,08,06,15,02,19.10
2015,08,06,15,03,19.10
2015,08,06,15,04,19.10
2015,08,06,15,05,19.20
2015,08,06,15,06,19.20
2015,08,06,15,07,19.30
2015,08,06,15,08,19.30
2015,08,06,15,09,19.30
2015,08,06,15,10,19.30
2015,08,06,15,11,19.30
2015,08,06,15,12,19.30
2015,08,06,15,13,19.30
2015,08,06,15,14,19.30
2015,08,06,15,15,19.40
2015,08,06,15,16,19.40
2015,08,06,15,17,19.40
2015,08,06,15,18,19.40
2015,08,06,15,19,19.40
2015,08,06,15,20,19.30
2015,08,06,15,21,19.30
2015,08,06,15,22,19.30
2015,08,06,15,23,19.30
2015,08,06,15,24,19.30
2015,08,06,15,25,19.30
2015,08,06,15,26,19.30
2015,08,06,15,27,19.30
2015,08,06,15,28,19.30
2015,08,06,15,29,19.20
2015,08,06,15,30,19.20
2015,08,06,15,31,19.20
2015,08,06,15,32,19.20
2015,08,06,15,33,19.20
2015,08,06,15,34,19.30
2015,08,06,15,35,19.30
2015,08,06,15,36,19.40
2015,08,06,15,37,19.40
2015,08,06,15,38,19.40
2015,08,06,15,39,19.40
2015,08,06,15,40,19.40
2015,08,06,15,41,19.40
2015,08,06,15,42,19.40
2015,08,06,15,43,19.40
2015,08,06,15,44,19.40
2015,08,06,15,45,19.40
2015,08,06,15,46,19.50
2015,08,06,15,47,19.60
2015,08,06,15,48,19.60
2015,08,06,15,49,19.60
2015,08,06,15,50,19.60
2015,08,06,15,51,19.60
2015,08,06,15,52,19.60
2015,08,06,15,53,19.60
2015,08,06,15,54,19.60
2015,08,06,15,55,19.60
2015,08,06,15,56,19.70
2015,08,06,15,57,19.70
2015,08,06,15,58,19.80
2015,08,06,15,59,19.80
2015,08,06,16,00,19.80
2015,08,06,16,01,19.80
2015,08,06,16,02,19.80
2015,08,06,16,03,19.90
2015,08,06,16,04,19.90
2015,08,06,16,05,19.90
2015,08,06,16,06,19.90
2015,08,06,16,07,19.90
2015,08,06,16,08,19.90
2015,08,06,16,09,19.90
2015,08,06,16,10,19.80
2015,08,06,16,11,19.80
2015,08,06,16,12,19.80
2015,08,06,16,13,19.90
2015,08,06,16,14,19.90
2015,08,06,16,15,19.90
2015,08,06,16,16,20.00
2015,08,06,16,17,20.10
2015,08,06,16,18,20.10
2015,08,06,16,19,20.10
2015,08,06,16,20,20.00
2015,08,06,16,21,20.00
2015,08,06,16,22,19.90
2015,08,06,16,23,19.90
2015,08,06,16,24,19.90
2015,08,06,16,25,19.90
2015,08,06,16,26,19.90
2015,08,06,16,27,19.80
2015,08,06,16,28,19.80
2015,08,06,16,29,19.80
2015,08,06,16,30,19.80
2015,08,06,16,31,19.80
2015,08,06,16,32,19.80
2015,08,06,16,33,19.70
2015,08,06,16,34,19.70
2015,08,06,16,35,19.70
2015,08,06,16,36,19.70
2015,08,06,16,37,19.70
2015,08,06,16,38,19.70
2015,08,06,16,39,19.70
2015,08,06,16,40,19.70
2015,08,06,16,41,19.80
2015,08,06,16,42,19.80
2015,08,06,16,43,19.90
2015,08,06,16,44,19.90
2015,08,06,16,45,19.90
2015,08,06,16,46,19.90
2015,08,06,16,47,19.90
2015,08,06,16,48,19.90
2015,08,06,16,49,19.90
2015,08,06,16,50,20.00
2015,08,06,16,51,20.00
2015,08,06,16,52,20.00
2015,08,06,16,53,20.00
2015,08,06,16,54,20.00
2015,08,06,16,55,20.00
2015,08,06,16,56,20.00
2015,08,06,16,57,20.00
2015,08,06,16,58,20.00
2015,08,06,16,59,19.90
2015,08,06,17,00,19.90
2015,08,06,17,01,19.90
2015,08,06,17,02,19.90
2015,08,06,17,03,19.90
2015,08,06,17,04,19.90
2015,08,06,17,05,19.90
2015,08,06,17,06,19.90
2015,08,06,17,07,19.90
2015,08,06,17,08,19.90
2015,08,06,17,09,19.90
2015,08,06,17,10,19.90
2015,08,06,17,11,19.90
2015,08,06,17,12,19.80
2015,08,06,17,13,19.80
2015,08,06,17,14,19.90
2015,08,06,17,15,19.90
2015,08,06,17,16,19.90
2015,08,06,17,17,19.90
2015,08,06,17,18,19.90
2015,08,06,17,19,19.90